Other Surface Observations
Issued by NWS

Current Version | Previous Version | Text Only | Print | Product List | Glossary On
Versions: 1 2 3 4 5 6 7 8 9 10 11 12 13 14 15 16 17 18 19 20 21 22 23 24 25 26 27 28 29 30 31 32 33 34 35 36 37 38 39 40 41 42 43 44 45 46 47 48 49 50
000
SXUS52 KTAE 011616
OSOTAE
OSOTAE
North Florida/South Alabama/Southwest Georgia Weather Roundup
National Weather Service Tallahassee Florida
1100 AM EST MON MAR 01 2021

Note: "fair" indicates few or no clouds below 12,000 feet with no
significant weather and/or obstructions to visibility.

!FLZ017-115-028-034-025-011700
...North Florida...

CITY           SKY/WX    TMP DP  RH WIND       PRES   REMARKS
TALL INTL ARPT PTSUNNY   79  67  66 SW10G20   30.07F
FSU LOVE BLDG    N/A     79  68  69 S8G17       N/A
APALACHICOLA   CLOUDY    74  72  93 S8        30.09S
PERRY          NOT AVBL
CROSS CITY     CLOUDY    73  72  94 SW9       30.12S
JACKSONVILLE   LGT RAIN  77  68  73 W14       30.08F
$$

!FLZ112-006-005-002-011-011700
...Florida Panhandle...

CITY           SKY/WX    TMP DP  RH WIND       PRES   REMARKS
MARIANNA       NOT AVBL
BONIFAY        CLOUDY    76  68  76 SW5       30.07F
PANAMA CITY NW CLOUDY    75  72  90 S6        30.06F
TYNDALL AFB    PTSUNNY   75  73  96 S8        30.07S FOG
TYND DRONE APT PTSUNNY   76  75  98 S7        30.08F
DE FUNIAK SPR  CLOUDY    73  69  86 CALM      30.07F
EGLIN AFB      LGT RAIN  70  70 100 CALM      30.04F VSB 1/4
DESTIN         FOG       71  69  93 SE5       30.06F VSB 1/2
HURLBURT       LGT RAIN  72  70  94 E5        30.03F VSB 3/4
CRESTVIEW      CLOUDY    73  71  93 S6        30.05F FOG
PENSACOLA      CLOUDY    72  71  97 SE8       30.03F FOG
$$

!ALZ063-066-011700
...South Alabama...

CITY           SKY/WX    TMP DP  RH WIND       PRES   REMARKS
DOTHAN         PTSUNNY   78  70  76 SW9       30.09S
OZARK CAIRNS   PTSUNNY   75  69  80 SW12      30.05F
FT RUCKER HELI PTSUNNY   75  68  78 W8        30.06S
RUCKER HELI 3  FAIR      76  68  76 W7        30.05S
RUCKER HELI 2  PTSUNNY   76  69  78 W8        30.04F
FLORALA APT    PTSUNNY   77  68  73 VRB3      30.07S
ANDALUSIA      PTSUNNY   79  68  69 W5        30.05F
TROY           LGT RAIN  64  58  80 N9        30.12R
EUFALA         PTSUNNY   65  57  75 NE8       30.10S
MOBILE         PTSUNNY   76  67  73 W5        30.03F
$$

!GAZ120>161-011700
...Southwest and South Central Georgia...

CITY           SKY/WX    TMP DP  RH WIND       PRES   REMARKS
THOMASVILLE    PTSUNNY   77  66  69 W5        30.09F
BAINBRIDGE     CLOUDY    76  69  79 SW12      30.07F
MOODY AFB      MOSUNNY   80  66  62 W8        30.07F
VALDOSTA       MOSUNNY   83  65  54 VRB7G17   30.08S
MOULTRIE       MOSUNNY   75  66  73 W12       30.08F
BLAKELY        CLOUDY    72  66  83 CALM      30.07S
ALBANY         LGT RAIN  77  68  73 W6        30.08F
TIFTON         CLOUDY    69  65  86 W5        30.07F
FITZGERALD     CLOUDY    68  64  86 NW3       30.10R
CORDELE        LGT RAIN  60  57  89 NE6       30.12R
AMERICUS       PTSUNNY   68  57  68 N12       30.12F
HOMERVILLE     PTSUNNY   79  64  61 W12       30.08F
$$

!GMZ750-755-770-775-011700
...Coastal and Buoy Obs...

STATION/POSITION TIME  TEMP    WIND        PRES    VSBY  WAVE
                       AIR SEA DIR/SP/G                  HT/PER
                 (UTC) (F)     (DEG/KT/KT) (MB)    (MI)  (FT/S)
KEATON BEACH     1600   69     240/  8/  9 1020.1R
CEDAR KEY        1600   71     220/  5/  7 1020.2R
C TOWER          1600   69     160/  9/  9 1019.0F
APALACHICOLA BUO 1600          150/  6/  8 1020.2
PANAMA CITY BUOY 1600   74 72  150/  6/  8 1018.3
MOBILE BUOY      NOT AVBL
ORANGE BCH AL BU 1600   67 64              1017.9
$$



USA.gov is the U.S. government's official web portal to all federal, state and local government web resources and services.